Wind_Speed
12 12 12 12 12 11 11 10 9 8 9 9 9 10 11 8 5 3 4 5 7 12 13 13 14 16 18 18 17 18 17 19 24 24 22 23 22 26 35 34 30 31 30 29 30 31 32 34 34 32 30 29 28 27 25 24 24 24 23 23 24 24 23 24 24 23 22 22 20 19 19 20 20 16
12 12 12 12 12 11 10 9 9 8 8 8 9 9 10 10 7 5 4 4 8 12 13 13 15 17 19 18 17 17 17 20 24 24 23 23 24 31 35 31 29 30 28 29 31 32 34 36 35 33 31 31 29 28 27 26 26 26 25 24 25 26 25 24 24 23 22 21 21 20 19 20 21 20
12 12 12 12 11 10 9 8 8 8 8 8 8 7 8 9 8 6 5 4 7 11 12 13 14 16 19 18 17 17 18 20 24 24 24 24 27 31 30 29 29 28 28 30 31 33 36 37 36 33 32 31 30 29 29 28 28 27 27 26 26 27 27 26 24 24 23 22 21 20 20 21 22 22
11 12 11 10 9 7 7 7 7 8 7 7 7 6 6 7 7 7 7 5 7 9 11 13 14 15 18 18 16 17 19 20 23 24 24 25 28 28 27 29 29 27 28 30 31 35 37 36 34 32 32 31 30 30 30 30 30 29 29 29 28 28 28 27 26 24 24 23 22 21 21 21 22 23
10 11 11 10 9 7 7 7 6 7 6 6 7 7 6 6 6 7 7 7 8 10 11 13 14 14 16 17 17 18 20 21 23 24 24 25 26 26 27 29 28 27 29 31 34 36 36 34 33 32 32 30 30 31 31 30 29 29 29 29 28 27 27 27 26 25 24 23 23 22 21 21 23 24
10 10 10 9 8 7 7 7 7 6 6 6 6 6 6 6 6 6 7 8 9 11 12 13 14 15 16 16 17 19 20 22 24 24 24 25 26 26 27 28 28 27 29 32 35 35 34 33 33 32 31 31 32 31 30 30 29 29 28 27 26 26 26 26 26 25 23 23 23 23 22 21 23 24
9 9 8 8 7 7 7 7 6 6 5 5 6 5 4 5 6 6 6 7 9 11 12 13 14 15 16 17 18 19 20 22 24 24 24 26 28 27 27 28 28 27 30 33 34 34 34 34 34 33 33 33 32 31 30 30 28 27 26 26 26 25 25 25 25 24 23 23 24 24 23 22 22 24
8 8 7 7 6 6 6 6 6 6 5 5 5 5 4 5 6 6 6 7 9 10 12 13 14 15 16 17 17 19 20 22 22 23 25 27 28 27 26 27 27 28 30 31 31 33 34 34 35 35 34 32 32 32 30 27 25 25 26 26 25 23 23 23 23 24 23 22 23 25 25 24 23 23
8 7 7 7 6 6 6 5 5 5 5 5 6 6 5 6 7 7 7 8 9 10 12 13 13 14 16 16 17 19 22 23 23 23 25 27 27 27 26 26 26 28 29 30 31 33 34 36 36 35 34 33 33 31 27 25 25 26 26 25 23 22 22 21 22 22 23 23 23 24 26 26 24 22
7 7 6 6 6 5 5 5 5 5 5 5 6 7 7 7 8 7 8 8 9 10 12 12 13 14 15 16 17 19 22 23 24 25 26 26 26 27 28 26 25 26 27 30 33 35 35 36 36 35 35 33 31 29 27 27 27 27 25 24 22 21 20 20 21 23 25 26 25 25 25 26 26 23
7 6 6 5 6 5 5 5 5 5 5 4 6 7 7 8 8 8 8 9 9 11 12 12 14 15 15 16 18 20 21 22 23 26 28 28 27 28 28 27 25 25 27 30 34 35 35 35 35 35 34 32 30 29 28 28 27 24 21 20 19 20 22 24 25 27 29 31 29 26 26 26 27 26
6 6 6 6 6 6 6 7 7 7 6 5 5 7 8 8 9 9 9 10 10 11 12 13 14 15 15 16 18 20 21 22 24 26 27 28 29 30 29 26 23 24 28 32 35 36 35 35 35 34 33 31 29 29 28 26 23 21 20 22 25 27 29 30 30 31 31 32 30 27 26 26 26 27
6 6 6 6 6 6 8 8 9 9 9 7 6 6 7 8 8 9 9 10 11 11 12 13 14 15 15 17 19 20 21 23 25 27 27 27 28 29 28 25 21 23 28 33 34 35 35 35 35 35 33 32 30 29 27 24 23 25 27 29 30 31 31 30 31 31 30 30 30 29 27 26 26 26
6 5 5 5 6 6 8 9 10 10 9 8 7 7 8 8 8 9 9 10 11 12 12 13 14 15 16 18 19 19 21 23 25 27 27 27 28 28 26 24 21 22 29 33 33 34 34 34 35 35 33 32 31 29 27 27 29 31 31 30 31 31 31 30 29 29 28 29 30 29 28 27 26 26
6 5 5 4 4 4 4 5 8 10 9 8 7 7 9 10 10 9 9 10 11 12 12 13 14 15 16 18 18 18 21 23 24 25 26 26 28 27 25 24 23 25 30 33 34 35 35 35 36 35 33 33 32 30 30 31 32 32 31 31 31 30 30 29 28 27 27 27 28 29 29 28 27 26
6 5 5 4 3 3 4 3 3 6 7 7 8 8 9 11 12 12 11 11 10 11 11 12 14 14 16 18 18 19 21 22 23 25 25 25 26 26 25 25 25 28 31 33 33 35 36 35 34 34 34 33 33 32 32 32 33 32 31 30 30 29 30 31 30 28 27 26 26 27 28 28 27 26
5 5 5 4 3 3 5 4 2 2 4 5 7 8 7 8 11 13 14 14 13 11 10 11 13 14 15 17 18 19 20 21 23 24 24 24 25 26 27 26 28 29 30 32 32 33 35 35 35 35 35 34 34 33 32 32 32 30 29 29 31 32 31 30 29 28 27 26 26 26 27 27 27 27
5 4 4 4 4 2 3 3 3 2 2 3 4 5 5 4 7 11 12 13 13 11 9 10 13 13 14 15 17 18 18 19 21 23 24 24 25 27 27 25 27 27 27 30 31 30 33 35 35 36 36 36 35 34 32 31 30 29 31 32 32 31 29 28 27 27 25 24 24 25 25 26 26 27
5 4 4 3 3 3 2 3 5 3 2 2 3 4 4 4 4 7 10 12 13 12 10 10 11 12 13 15 16 17 18 18 20 22 22 23 25 26 25 24 25 24 24 29 30 28 32 35 35 36 37 36 35 34 31 31 31 32 33 32 30 29 28 28 27 26 24 23 22 23 24 24 24 25
5 5 4 4 3 3 1 3 5 5 3 2 3 4 4 4 4 5 10 14 15 16 14 13 14 15 18 21 21 20 22 22 22 21 20 21 24 24 23 23 25 24 23 28 31 30 31 34 34 36 37 36 34 33 32 32 34 35 34 30 29 29 29 28 28 27 25 23 22 21 22 22 22 23
6 5 5 4 3 3 2 2 4 5 5 3 4 5 4 5 5 7 10 12 14 17 17 17 18 20 21 24 23 22 24 25 23 21 20 22 24 23 22 21 25 26 22 26 32 31 31 33 33 34 36 35 32 31 33 34 35 34 32 30 30 31 30 29 28 26 24 21 20 19 19 20 20 20
7 7 7 6 4 3 2 1 3 4 5 3 4 4 4 5 6 9 11 11 14 17 17 16 18 19 20 21 20 20 23 24 22 19 20 22 23 22 22 22 24 24 21 26 33 31 31 34 33 33 34 32 29 31 33 34 34 32 31 31 31 31 31 30 27 24 21 19 18 17 17 18 16 16
8 8 8 7 6 5 3 2 3 3 4 3 3 4 5 5 6 9 11 11 13 15 15 15 16 16 16 17 17 19 21 22 21 19 19 21 21 21 22 23 22 18 18 27 34 31 30 33 33 32 29 23 25 33 36 35 34 33 33 34 32 31 30 28 25 22 19 17 17 16 16 16 14 14
9 9 8 8 8 5 3 2 2 3 3 3 3 4 5 5 7 10 11 12 14 14 14 14 15 14 15 16 16 19 20 21 22 21 19 20 20 21 22 23 22 18 19 29 34 30 29 31 30 30 26 19 23 34 38 35 33 35 36 36 34 30 27 25 23 22 19 17 16 15 14 16 16 15
10 10 9 9 8 6 4 3 2 2 3 4 2 3 5 6 9 11 12 12 13 13 13 14 14 14 15 16 16 18 20 21 22 22 21 20 20 21 21 22 23 22 23 29 32 29 27 28 28 29 29 26 27 33 36 33 31 34 38 36 33 30 26 25 25 23 20 17 15 13 13 15 18 18
10 9 9 9 9 7 5 4 2 2 3 4 2 3 6 8 10 12 11 11 11 12 13 13 14 14 15 16 17 18 19 21 22 22 23 23 22 20 20 21 22 22 24 28 31 29 27 27 28 28 28 28 29 32 33 31 32 37 40 36 31 28 27 28 28 25 21 16 14 12 12 12 16 20
9 8 8 9 10 8 6 5 4 3 3 3 3 5 7 9 11 11 9 9 10 12 13 13 13 14 15 16 17 17 18 20 21 22 23 25 24 21 20 20 19 20 23 25 27 28 27 26 26 25 23 25 27 27 27 30 35 40 42 38 31 27 28 30 28 25 21 15 12 10 9 9 12 16
9 9 9 11 11 9 7 6 5 4 4 4 4 6 8 9 10 8 8 9 10 11 12 12 13 14 14 15 16 17 18 19 20 20 22 24 24 23 22 21 19 19 22 22 23 26 28 27 26 25 24 23 21 20 23 30 35 38 40 39 33 27 30 32 29 26 22 12 8 6 8 8 10 14
10 12 12 13 11 9 8 7 6 6 6 5 5 6 8 8 8 7 7 9 10 11 11 12 12 13 13 14 16 17 18 19 19 20 21 22 23 23 23 22 20 19 21 21 21 24 27 28 27 27 27 22 17 19 26 31 33 34 36 37 32 27 30 33 29 27 26 18 8 2 3 5 8 13
13 14 14 13 11 10 9 8 7 8 8 8 8 7 6 7 6 6 7 9 10 10 10 11 12 13 13 14 16 17 18 20 21 20 20 21 22 23 23 23 22 22 22 21 20 23 26 29 28 27 28 23 16 20 27 28 30 35 35 34 31 28 31 35 31 28 29 23 15 10 8 5 6 7
14 14 14 14 12 11 11 10 10 10 10 10 9 8 7 7 6 6 7 9 9 9 9 10 11 12 13 14 15 17 19 21 22 21 20 20 21 22 22 22 23 24 23 21 21 22 24 29 30 28 27 22 14 18 27 28 29 35 35 33 31 27 29 36 34 30 28 23 18 17 15 11 9 4
12 12 13 13 13 12 12 11 11 11 10 9 8 7 6 6 6 7 8 8 8 7 8 9 10 12 13 13 15 18 19 20 21 21 20 20 21 22 21 21 23 25 24 23 24 23 23 27 30 29 28 21 13 17 27 28 31 38 36 33 32 29 30 36 35 30 27 23 21 23 21 18 16 11
10 10 11 12 12 12 11 11 10 9 8 7 7 6 6 6 7 7 7 8 7 7 8 9 10 11 13 13 15 17 18 19 20 20 20 21 23 23 23 22 23 24 24 24 25 25 25 27 30 30 29 23 15 16 24 27 33 43 40 33 32 33 33 35 34 30 28 24 21 22 23 22 21 18
11 10 11 12 12 11 11 10 9 9 8 7 7 6 6 7 6 6 7 8 7 7 7 9 10 11 12 13 14 16 17 18 19 19 19 20 23 24 24 24 23 23 23 24 25 25 25 27 30 29 29 25 17 15 21 25 32 42 41 32 30 33 34 37 36 31 29 27 22 19 22 24 23 20
13 12 11 12 12 12 11 10 9 9 9 9 8 8 7 7 6 7 8 8 7 7 8 9 10 11 12 13 14 16 17 17 18 18 18 19 20 21 22 23 22 22 23 24 25 25 25 26 28 27 27 26 20 15 20 25 30 38 40 36 34 36 36 37 37 33 31 31 26 20 20 22 25 25
13 12 13 12 12 12 11 11 10 10 10 10 10 9 8 8 7 8 8 8 8 9 9 9 10 11 12 13 15 16 17 17 17 18 18 18 18 18 19 21 21 22 23 23 24 25 24 25 26 26 23 21 16 13 18 24 27 32 37 39 39 40 39 37 38 37 35 31 27 24 21 19 21 25
13 13 13 13 13 12 12 11 11 11 11 11 10 10 9 8 9 9 8 9 9 10 10 10 11 12 12 14 15 16 17 17 17 17 18 17 17 17 17 19 20 21 22 23 23 23 23 23 25 24 20 15 11 11 17 24 25 27 32 36 38 39 41 40 38 37 37 33 27 25 24 21 21 22
14 14 14 14 13 12 12 11 11 11 11 11 10 10 10 9 9 9 9 10 10 10 10 10 11 11 12 14 15 16 17 17 16 17 17 16 16 16 16 18 19 19 20 22 23 22 22 22 23 23 20 14 11 11 15 21 24 24 26 31 34 35 39 42 37 32 34 35 30 25 24 24 23 21
16 15 14 14 13 13 12 12 12 11 11 11 10 10 10 10 9 10 10 11 11 11 11 11 11 12 14 15 15 15 16 16 16 16 16 15 15 16 16 16 17 17 18 21 22 22 22 22 22 23 21 17 15 16 17 19 22 22 22 26 30 29 32 37 37 34 33 34 30 27 26 28 29 27
19 17 16 14 14 13 12 12 12 11 11 10 10 10 10 10 10 10 11 11 11 11 12 12 13 14 15 15 15 15 15 15 15 15 15 15 14 15 15 16 16 16 17 19 20 20 21 22 23 24 22 18 18 20 19 16 18 21 20 22 24 24 24 28 33 34 33 32 31 28 27 28 31 32
18 17 17 15 14 14 13 13 13 12 11 11 10 10 10 11 11 11 12 13 14 14 14 14 14 14 15 15 14 13 14 15 15 15 15 14 14 14 15 15 15 15 16 17 17 18 20 22 22 23 21 19 19 20 17 14 16 20 21 20 20 20 19 20 25 29 31 31 29 27 24 22 22 26
17 16 15 15 15 15 14 14 13 12 12 11 11 11 11 11 11 12 13 14 16 16 15 15 14 14 14 13 13 13 14 15 15 15 14 14 14 14 14 13 14 14 15 15 15 17 19 20 21 21 20 20 20 19 17 15 16 18 20 20 18 18 17 16 17 22 27 29 27 24 21 16 12 14
16 16 15 15 15 14 14 14 14 13 13 12 12 12 12 12 12 13 13 14 14 14 14 14 13 13 13 13 14 14 15 15 14 14 14 14 14 13 13 13 13 13 14 14 15 16 17 18 19 19 19 19 20 18 17 18 17 17 18 20 19 17 16 15 14 16 21 26 26 24 22 19 13 11
16 15 15 15 15 15 15 15 14 14 13 13 13 13 13 13 13 14 14 14 14 14 14 14 14 14 14 15 14 14 15 15 14 14 14 14 13 13 13 13 13 13 13 14 15 16 16 16 17 17 17 18 18 18 18 19 18 16 16 18 19 17 16 15 14 14 15 20 23 23 21 21 20 19
17 16 15 15 15 15 15 15 14 14 14 13 13 13 13 13 14 14 14 15 15 15 15 15 15 16 15 15 15 15 16 16 14 14 14 13 13 13 13 13 13 13 13 13 14 14 16 16 15 16 16 16 16 17 18 18 18 16 16 17 18 18 17 15 15 15 14 16 19 22 20 18 17 19
Wind_Direction
86 84 82 80 76 70 67 64 60 58 56 49 45 43 34 21 17 17 15 21 11 2 360 354 350 351 349 344 339 336 334 329 330 331 327 323 321 323 326 328 330 330 329 329 328 326 326 325 324 321 318 316 315 313 312 311 309 307 307 306 303 302 300 299 301 303 303 303 299 293 283 275 273 264
88 86 83 81 79 75 71 69 65 60 59 55 49 47 40 31 27 12 356 17 11 355 352 352 345 343 343 340 334 332 329 328 330 330 326 324 322 324 327 328 328 328 327 324 322 322 324 325 324 322 319 317 314 313 311 309 309 306 304 303 301 299 298 297 298 298 298 299 298 292 283 277 273 265
91 88 85 82 82 79 75 71 67 62 59 56 51 49 43 35 28 10 345 353 6 353 344 342 340 336 334 333 331 329 327 327 330 329 326 324 324 326 326 326 326 326 323 321 320 322 323 323 322 320 319 317 313 311 310 308 307 307 304 302 301 299 297 296 295 294 293 293 293 289 281 274 271 266
92 89 86 85 83 82 81 74 67 64 60 55 50 45 41 32 20 7 351 338 346 349 340 334 333 331 329 329 331 331 329 328 330 330 327 325 326 326 325 325 326 324 322 322 323 324 324 322 321 320 319 317 314 312 312 311 309 308 306 305 303 300 297 295 294 292 290 288 288 286 281 272 267 267
94 92 89 87 84 81 80 75 70 66 60 57 52 43 38 31 16 3 352 339 336 342 341 333 330 331 331 330 333 333 330 330 331 330 328 328 328 327 325 325 326 326 324 324 325 326 326 325 324 323 321 319 318 317 315 314 312 309 308 307 304 301 296 293 292 291 288 286 285 282 280 274 266 265
98 97 94 91 87 82 78 72 68 65 59 56 51 42 35 24 13 0 347 338 335 336 337 333 331 333 334 331 333 335 332 330 331 330 330 330 329 328 326 325 326 327 327 326 327 329 331 331 329 327 326 323 321 320 318 316 314 311 310 309 306 302 297 293 291 290 288 285 282 281 279 275 268 265
105 102 98 94 88 83 79 73 66 61 57 53 45 37 31 15 3 353 340 336 334 330 330 333 333 333 333 332 332 334 334 332 331 330 331 330 329 327 327 326 326 325 326 329 331 332 334 334 333 330 327 324 322 320 318 316 314 312 311 310 308 305 300 296 292 290 289 285 281 279 277 275 270 265
110 106 100 96 92 85 80 74 66 57 52 51 41 26 20 13 0 349 338 335 331 325 324 330 332 332 331 331 333 335 335 334 333 331 330 329 328 327 327 327 327 326 327 332 334 334 333 332 330 328 326 325 323 320 317 315 314 314 314 312 310 308 304 301 296 293 291 289 284 279 275 274 273 268
112 108 102 95 91 86 80 73 63 52 46 44 36 22 15 10 358 347 342 338 332 326 326 329 331 332 332 331 334 338 338 335 334 332 330 329 328 328 328 328 328 328 330 333 336 336 334 331 329 328 327 326 324 322 320 318 317 317 315 312 311 310 308 305 301 299 297 295 291 284 278 274 273 271
114 108 102 93 87 82 77 70 56 44 41 36 25 15 10 5 355 346 344 340 336 333 331 332 334 335 336 335 336 341 340 336 335 333 331 331 330 330 330 331 331 332 332 333 335 336 334 332 330 328 328 327 324 323 323 321 319 317 314 312 311 310 308 306 303 301 299 297 294 288 282 275 270 268
116 107 99 91 84 79 74 66 49 34 30 27 22 16 7 359 353 350 348 345 342 341 338 338 340 338 338 338 338 340 340 338 337 336 333 332 333 333 333 334 334 334 334 334 335 336 335 333 331 329 328 327 325 323 321 319 318 317 315 314 313 309 307 304 301 299 297 295 291 287 283 277 270 267
118 109 99 92 87 82 78 70 56 45 37 23 16 15 8 1 356 352 351 350 348 348 345 343 343 340 339 341 340 339 342 342 340 338 334 330 331 333 333 334 335 336 337 336 336 337 337 335 332 331 330 328 326 324 320 317 317 318 316 313 310 308 304 301 299 297 294 292 288 284 281 278 272 267
125 113 101 97 95 87 78 70 59 50 46 39 28 17 8 3 1 357 355 355 354 351 349 347 345 342 342 344 343 342 345 343 337 335 333 329 330 332 331 333 336 337 338 337 336 336 336 334 331 331 330 329 327 324 320 319 319 317 314 311 310 308 304 300 298 296 292 289 286 282 278 275 272 268
137 127 115 105 91 77 67 62 55 50 47 44 40 32 24 16 10 4 360 360 359 354 350 349 346 342 342 344 343 342 342 339 335 333 332 330 331 333 333 334 337 340 341 338 334 335 336 333 330 330 330 328 327 325 321 319 319 316 314 313 312 311 307 303 300 296 292 288 285 280 275 271 269 266
149 144 136 118 89 72 65 54 44 43 47 52 52 48 40 35 31 22 11 4 1 355 351 348 345 342 341 340 341 342 339 337 334 333 331 331 333 335 335 334 335 339 343 340 335 335 337 334 330 329 330 329 327 324 320 320 319 317 316 315 313 311 309 306 303 299 294 289 285 280 273 267 265 263
160 159 150 135 112 94 93 86 36 28 39 50 52 46 38 35 36 35 29 21 10 356 346 344 344 342 339 337 340 341 337 334 331 330 331 333 332 332 333 331 329 333 340 341 335 333 337 336 330 328 329 330 327 323 321 320 319 316 316 317 317 314 311 307 304 299 294 289 286 281 272 265 261 260
166 171 164 154 146 98 74 70 49 21 25 26 30 32 28 23 23 24 25 23 19 7 347 337 340 341 338 336 338 338 334 331 330 329 331 332 331 330 330 328 327 331 339 343 337 332 335 337 332 328 330 330 328 325 322 320 318 319 321 322 320 316 311 307 304 300 294 288 284 280 274 266 259 257
174 178 175 165 157 133 80 53 40 34 14 7 21 31 36 32 25 23 21 18 16 11 352 337 336 338 339 337 335 336 335 331 330 328 326 328 330 328 326 325 328 333 340 345 340 333 335 338 334 330 331 331 329 328 325 324 325 326 326 323 320 317 314 310 307 303 298 290 282 275 271 266 259 256
185 184 183 176 156 140 110 52 50 55 22 9 25 30 34 42 43 31 23 22 23 15 360 346 340 338 346 348 343 342 341 334 329 325 322 325 329 328 326 329 334 336 341 348 346 336 334 338 335 330 331 332 332 332 330 329 330 328 325 324 323 321 318 314 311 306 301 295 285 272 264 263 259 254
198 197 195 190 174 163 150 28 42 68 73 28 15 25 30 35 42 23 12 16 20 15 7 0 355 353 355 355 352 348 345 340 332 326 326 332 334 333 333 336 338 339 343 351 351 339 333 339 336 329 330 332 333 334 334 332 331 330 329 328 327 324 320 316 312 307 301 297 290 274 260 257 255 252
206 208 209 201 184 183 193 359 21 59 75 42 6 20 23 20 30 19 4 3 3 2 1 356 353 354 353 351 350 346 344 344 340 334 335 339 339 338 338 338 339 340 344 352 352 341 335 339 336 329 329 332 333 336 336 334 333 332 332 330 328 325 322 316 312 308 302 296 292 278 259 252 250 247
213 214 217 205 187 201 225 331 10 49 66 32 357 13 11 8 20 11 359 357 352 350 351 347 344 346 346 345 345 343 342 346 346 340 338 340 340 339 339 337 337 338 345 353 351 343 338 340 339 334 332 332 336 340 339 337 336 335 334 332 328 326 324 321 317 313 306 297 291 277 257 248 243 237
215 217 222 210 194 202 230 298 355 34 55 28 349 358 1 1 7 360 350 348 344 339 338 338 337 340 342 342 343 344 344 347 348 345 341 340 340 338 336 336 337 338 344 351 349 344 342 343 342 340 338 334 335 340 341 340 339 338 336 333 330 328 328 328 325 321 312 301 294 280 255 240 231 227
213 213 217 213 206 209 228 269 336 11 38 28 358 351 357 354 351 348 340 338 337 330 325 329 334 337 342 343 344 345 346 348 348 347 344 342 339 335 333 335 338 336 337 345 347 344 343 344 342 340 341 337 331 335 339 340 340 340 338 334 332 329 329 331 330 325 317 304 295 285 259 237 224 219
215 213 212 212 211 214 228 254 305 343 7 24 13 335 343 345 344 344 337 330 331 326 323 330 335 337 341 343 344 346 346 346 345 344 343 342 337 333 332 333 333 331 334 342 346 344 341 344 344 341 340 338 331 330 333 334 336 339 339 336 335 333 332 333 332 327 320 307 293 281 265 242 226 220
219 214 207 209 213 214 224 246 261 293 342 12 8 323 332 339 343 345 337 324 324 326 327 331 334 337 340 341 342 344 344 343 342 340 339 340 337 333 332 332 330 328 332 339 345 347 344 344 345 342 338 335 330 329 331 332 332 338 341 341 340 337 337 338 334 329 323 308 287 272 263 249 231 222
223 217 207 210 216 217 221 236 248 270 306 323 321 325 334 339 341 341 329 318 321 326 328 331 334 337 339 339 341 344 343 339 337 334 334 335 336 334 334 333 330 327 330 335 343 349 347 344 343 340 334 331 329 330 333 333 332 337 342 344 343 341 343 345 341 334 327 307 284 268 250 243 236 227
225 217 213 215 217 219 224 233 244 260 277 282 292 311 324 331 333 326 317 319 325 326 328 333 336 337 338 340 340 340 337 334 332 332 332 332 335 336 336 335 333 332 333 334 340 347 348 346 342 339 336 333 328 331 335 331 332 337 341 343 345 345 348 350 348 348 347 332 292 248 205 203 216 219
227 219 218 218 219 223 229 238 249 259 269 279 289 304 315 317 312 307 314 323 326 327 330 334 335 337 339 340 338 333 334 338 341 339 335 333 335 337 338 339 338 339 340 339 340 345 348 346 342 339 340 335 328 337 340 333 333 340 343 343 344 346 352 356 355 360 8 9 357 328 186 191 197 200
228 223 222 222 225 231 235 240 249 254 258 267 276 285 289 287 288 302 320 325 323 323 329 332 334 336 337 336 337 338 343 349 351 345 337 336 338 339 340 341 342 343 345 344 343 346 348 347 345 342 340 336 331 345 350 343 340 344 346 348 347 346 354 1 1 6 13 15 16 29 49 79 129 168
232 229 228 228 231 239 244 244 247 250 253 257 263 266 263 263 275 297 312 317 316 314 321 326 329 332 333 334 340 346 350 352 352 348 341 338 340 340 340 342 343 344 345 345 346 347 347 348 348 345 341 334 329 350 357 355 352 351 350 352 354 351 355 3 6 10 13 14 20 31 42 55 70 86
231 230 233 235 237 242 247 248 247 246 245 246 250 257 263 270 279 284 288 291 292 300 316 324 326 329 332 335 341 346 348 348 349 348 344 341 342 344 344 344 345 344 344 345 347 347 347 349 349 348 345 337 327 351 2 2 1 360 356 355 359 360 3 8 10 11 13 18 26 31 33 33 34 33
224 227 231 235 237 238 240 243 244 245 245 246 250 256 267 277 284 288 291 290 293 306 319 320 322 326 329 332 338 343 344 343 342 342 342 344 348 350 350 349 348 345 344 345 347 348 348 349 349 350 351 345 332 351 8 9 5 5 3 0 1 2 5 11 13 13 16 20 24 28 31 29 25 24
223 233 234 235 238 239 240 242 245 249 253 257 261 264 269 276 282 289 293 293 296 307 310 311 315 320 321 324 332 338 338 334 334 337 339 343 349 353 353 352 349 345 345 347 348 349 349 349 349 349 353 355 349 355 8 10 9 8 6 5 6 5 5 11 16 18 22 24 24 26 29 29 27 25
226 236 239 241 242 242 243 246 248 251 254 258 262 265 268 273 277 279 282 285 291 297 299 303 308 310 314 320 325 328 326 323 325 330 333 338 345 348 350 349 344 342 346 348 349 349 350 350 351 350 351 355 357 359 2 3 7 10 8 7 9 8 7 11 17 21 23 24 26 26 25 26 28 28
229 235 238 243 245 244 246 248 249 252 254 254 255 258 261 267 271 273 276 281 285 289 292 298 303 304 308 313 314 315 316 316 319 324 326 331 338 340 342 343 340 340 346 350 349 350 351 352 353 352 351 352 354 358 358 356 1 9 9 8 8 9 10 14 20 24 23 21 21 23 20 16 20 25
230 235 237 242 244 244 247 249 249 251 252 251 253 256 258 263 267 270 274 276 275 278 283 288 294 298 303 307 310 313 316 317 320 322 321 326 334 336 336 339 338 339 345 349 348 350 353 354 354 354 353 353 353 353 352 353 358 5 8 8 8 10 12 16 19 21 22 21 19 20 19 14 12 19
231 235 238 242 244 245 247 249 250 251 251 251 253 254 255 260 265 269 275 275 272 275 280 283 289 297 303 309 312 313 315 317 317 317 317 322 330 332 331 334 335 335 341 345 347 350 354 355 356 355 352 352 356 352 346 351 358 2 2 6 8 10 13 16 16 15 18 22 22 21 21 20 18 20
232 236 239 241 244 245 246 247 247 247 248 250 251 252 254 259 264 269 275 276 275 277 282 285 292 298 301 305 309 309 311 314 314 312 315 320 324 325 326 327 327 329 335 340 342 347 351 355 356 354 347 341 342 342 339 345 356 360 358 1 7 10 13 17 18 16 15 18 20 21 24 28 29 31
230 235 239 241 243 244 245 245 244 243 244 246 249 252 256 261 266 270 275 276 276 278 280 284 289 292 294 299 304 305 307 312 313 313 317 320 317 316 316 316 317 323 332 335 336 341 348 351 349 346 342 336 333 336 339 344 354 2 3 359 2 8 14 18 22 23 21 20 20 18 19 22 24 27
227 231 236 238 240 242 243 242 241 241 243 245 249 253 256 261 267 270 273 277 279 280 281 281 283 285 288 291 295 298 301 305 309 312 316 317 313 311 310 309 312 322 329 329 330 336 342 343 341 340 343 343 340 341 347 350 352 360 4 0 357 1 7 16 26 31 31 31 29 23 17 16 16 20
224 228 233 235 235 237 238 238 238 240 242 247 252 255 257 261 266 267 269 273 275 275 274 273 274 278 284 290 295 301 303 303 303 305 308 309 309 310 310 311 316 322 323 321 324 330 332 334 338 341 344 348 349 349 351 350 346 350 358 0 359 358 357 359 13 26 33 38 40 35 26 18 10 14
225 228 232 233 232 233 234 235 238 241 244 249 254 257 260 264 265 266 267 269 269 267 265 268 273 279 287 294 298 302 304 304 302 301 301 301 302 304 306 309 311 311 311 313 318 324 327 331 336 341 344 349 352 351 347 344 341 345 354 356 358 0 358 352 351 4 19 29 36 40 40 38 37 36
228 228 231 232 230 231 232 234 238 243 247 252 256 258 261 261 262 264 267 269 270 268 266 268 274 279 285 292 294 296 300 302 300 298 297 296 297 297 298 301 301 299 303 309 312 319 326 329 332 337 342 347 349 348 345 343 341 344 351 353 353 357 2 0 355 358 8 16 18 24 33 42 48 49
231 230 231 231 229 229 232 235 240 245 249 253 256 258 258 258 259 263 266 265 266 266 266 268 272 276 282 288 290 292 296 298 296 294 293 294 298 299 298 300 300 298 299 303 305 312 320 324 327 333 336 338 342 345 344 342 340 341 349 353 353 354 358 359 360 5 11 13 11 12 16 26 38 45
Height
866 866 866 866 866 866 866 867 867 867 867 867 866 866 865 863 861 859 858 857 858 857 856 854 852 851 850 847 845 843 841 839 836 832 829 826 823 820 816 812 809 807 805 802 799 797 794 792 789 787 785 783 781 779 777 775 773 772 770 769 767 766 765 764 762 761 760 760 759 759 758 757 757 757
867 867 867 867 867 867 868 868 868 869 868 868 868 867 867 866 865 864 861 858 858 858 856 855 853 851 850 848 845 843 841 838 835 832 828 825 822 818 813 810 808 805 803 800 797 795 792 790 787 785 782 780 778 776 775 773 771 769 767 766 764 763 761 761 760 759 758 757 757 756 756 756 755 754
868 868 868 868 868 869 869 869 870 870 869 869 869 868 868 868 867 866 864 860 859 859 857 856 854 852 850 847 845 843 840 837 834 831 827 824 820 815 811 808 806 804 801 798 795 792 790 787 784 782 779 777 775 773 772 770 768 766 765 763 761 760 758 757 757 756 755 755 754 754 754 753 753 752
869 869 869 869 870 870 870 871 871 870 870 870 869 869 869 868 868 867 865 862 860 860 858 856 854 852 850 847 845 843 840 837 833 830 826 822 818 814 810 807 804 802 799 795 793 790 787 784 781 778 776 774 772 770 768 767 765 763 761 759 758 756 755 754 753 753 752 752 751 751 751 750 750 750
870 870 870 870 871 871 871 871 871 871 871 870 870 870 869 869 868 867 865 863 861 859 858 856 854 852 849 847 844 842 839 836 832 829 825 821 817 814 809 805 802 800 797 793 790 787 784 781 778 775 773 771 769 767 765 763 761 760 758 756 754 753 752 750 750 750 749 749 749 748 748 748 748 748
871 871 871 871 872 872 872 872 872 871 871 871 870 870 870 869 868 867 866 864 861 859 857 856 853 851 849 846 844 841 838 835 831 828 824 820 817 813 809 804 800 798 795 791 788 784 781 778 775 773 770 768 766 764 762 760 758 756 755 753 751 750 748 747 746 746 746 746 746 746 746 746 746 746
872 872 872 872 872 873 872 872 872 872 871 871 871 870 870 869 868 867 866 864 862 860 857 855 853 850 848 846 843 841 838 834 830 827 823 820 816 812 808 804 799 796 793 789 785 782 779 776 774 771 768 766 763 761 759 757 755 753 752 750 748 747 745 744 743 743 743 743 743 742 743 743 743 744
873 873 873 873 873 873 873 873 873 872 872 871 871 870 869 869 868 866 865 864 862 860 857 855 853 850 848 845 843 840 837 834 830 826 822 819 814 811 807 803 798 794 790 787 784 781 778 775 772 769 766 763 760 758 756 754 752 751 749 747 746 744 743 742 740 740 740 740 739 739 739 740 740 740
873 874 874 874 874 874 874 874 873 873 872 871 871 870 869 868 867 866 865 863 862 860 857 855 853 850 848 845 842 839 836 832 829 826 822 818 813 809 805 802 797 792 788 785 783 780 776 773 769 766 763 760 758 755 753 751 749 748 746 745 743 742 741 739 738 737 737 737 736 736 736 736 737 737
874 874 874 874 874 874 874 874 874 873 872 871 870 870 869 868 867 865 864 863 861 859 857 854 852 849 847 844 842 839 836 832 828 824 820 817 813 808 803 800 796 792 788 785 782 779 775 771 767 763 760 757 754 752 750 748 747 745 744 742 741 740 739 738 736 735 734 734 734 733 732 732 733 734
875 875 875 875 875 875 874 874 873 873 872 871 871 870 869 868 866 865 864 862 860 858 856 853 851 849 847 844 841 839 836 833 829 824 819 814 811 807 803 799 796 792 788 784 781 778 774 769 765 761 758 755 752 750 748 746 744 743 741 740 739 738 737 736 734 733 731 730 730 730 729 728 728 730
875 875 875 875 875 875 874 873 873 872 872 871 871 870 869 867 866 865 863 861 860 858 855 853 851 849 846 844 842 839 835 832 829 826 821 815 809 806 802 799 795 792 788 784 779 776 772 767 763 759 755 752 750 747 745 743 742 741 739 738 737 736 734 733 731 730 728 726 726 726 726 725 724 725
875 876 876 876 875 874 873 873 872 871 871 871 870 870 868 867 866 865 863 861 859 857 855 853 851 849 846 844 842 839 836 833 830 826 822 817 811 806 802 798 796 792 788 784 779 775 771 766 762 758 754 750 748 745 743 741 740 738 737 736 734 732 731 729 728 726 724 722 721 721 722 722 721 720
875 876 876 875 875 874 873 872 872 871 871 870 870 869 868 867 866 864 863 861 859 857 855 853 852 849 847 845 843 840 838 835 832 827 822 817 811 806 801 796 795 792 788 783 778 775 772 766 761 757 753 749 746 744 741 739 738 736 734 732 730 728 726 725 723 722 720 719 717 717 717 717 718 717
875 876 876 876 875 874 873 873 872 871 871 870 869 869 868 866 865 864 863 861 860 858 856 854 853 850 848 846 844 841 839 836 832 828 823 818 812 807 801 795 792 790 788 783 778 774 771 767 761 756 753 749 745 742 739 737 735 733 731 729 727 725 723 721 719 718 717 715 713 712 712 713 714 714
875 875 876 876 875 875 874 873 872 872 871 870 869 868 867 866 865 864 863 861 860 859 857 855 854 852 849 847 844 842 840 836 833 829 824 820 814 809 804 798 793 790 788 784 779 774 770 767 761 756 753 748 744 741 738 736 733 730 728 726 723 721 719 717 715 714 712 711 710 708 708 708 709 710
875 875 875 875 875 874 873 873 873 872 871 870 869 868 867 865 864 863 862 860 859 858 857 856 854 852 850 847 845 843 840 837 833 828 824 821 816 811 806 801 796 791 788 784 780 775 770 767 762 756 752 748 743 739 736 733 731 727 725 723 720 718 716 713 711 709 708 707 706 705 704 704 705 706
874 874 874 874 874 874 873 873 872 871 871 870 869 868 867 866 865 863 862 860 859 858 857 856 854 853 851 848 845 843 841 838 834 829 825 821 816 812 807 802 798 793 789 785 781 775 770 767 762 755 750 746 742 737 734 731 728 725 723 720 717 714 712 709 707 706 704 703 701 700 700 700 701 702
874 874 874 874 874 874 873 872 871 870 870 870 869 868 867 866 865 864 862 861 859 858 857 856 854 852 850 848 845 843 840 837 834 830 826 822 817 812 806 802 798 794 790 787 782 776 771 768 763 755 750 746 741 736 732 729 726 723 720 717 714 711 708 706 704 702 700 698 697 696 696 697 697 698
873 873 873 873 873 873 872 871 870 869 869 869 868 867 866 865 864 863 862 860 858 857 856 855 853 851 848 846 844 841 839 836 833 829 825 821 817 811 806 800 796 793 790 787 784 779 773 769 765 757 750 745 740 735 731 727 724 720 717 714 710 707 705 702 700 698 696 694 693 692 693 694 694 695
873 873 873 873 873 872 872 871 870 869 868 868 868 867 866 865 864 862 861 859 857 856 855 853 851 849 847 844 842 840 838 835 832 828 824 821 816 811 806 801 796 793 790 787 785 781 774 769 766 759 751 746 741 735 731 727 723 718 715 711 708 704 701 699 696 694 692 690 690 689 689 691 692 693
872 872 872 871 871 871 871 870 869 868 867 867 867 866 865 864 863 862 861 859 857 856 854 852 851 848 846 844 842 840 837 834 832 829 825 821 817 812 808 803 798 793 790 788 785 781 774 770 767 760 752 746 741 737 732 727 722 718 713 709 706 702 698 695 692 690 688 687 686 686 687 688 690 691
871 871 870 870 870 870 870 869 869 868 867 867 866 865 864 864 863 862 860 859 857 855 854 852 850 848 846 844 842 840 837 834 832 829 826 822 818 814 810 805 800 794 790 788 786 781 775 771 768 763 755 746 739 735 732 727 722 718 713 709 704 700 697 693 690 687 685 684 683 683 684 686 688 690
870 870 869 869 869 869 869 868 868 867 866 866 865 865 864 863 862 861 860 858 856 855 853 851 849 847 846 844 842 839 837 834 831 829 826 823 820 816 811 807 802 798 793 790 787 782 776 773 770 767 763 755 745 737 733 729 724 719 714 709 703 699 695 692 688 685 683 682 681 681 682 683 685 687
868 868 868 867 867 868 868 867 867 866 865 865 864 864 864 863 862 860 859 857 856 854 853 851 849 847 845 843 841 839 836 834 831 828 825 823 820 817 812 808 804 800 795 791 788 783 778 774 771 768 766 761 753 743 735 730 727 722 717 710 704 699 695 691 687 684 681 680 679 679 680 681 682 685
866 866 866 866 866 866 866 866 866 865 865 864 863 863 863 862 861 859 858 857 855 854 852 850 848 846 844 843 841 839 837 834 831 828 825 822 820 817 814 810 805 801 796 791 788 784 779 775 772 770 765 761 755 747 738 730 725 721 716 711 705 700 696 692 687 683 680 678 678 678 678 679 680 682
865 865 865 865 865 865 865 865 865 864 864 863 862 862 861 860 859 858 857 856 855 853 851 849 848 846 844 843 841 839 837 834 831 828 825 821 818 816 813 810 806 802 797 793 789 785 780 776 773 770 766 761 755 748 740 733 725 720 715 710 706 702 698 693 688 683 679 677 677 677 677 678 679 680
864 865 864 863 864 864 864 864 864 863 862 862 861 861 860 859 858 857 857 856 854 853 851 849 847 846 844 843 841 839 837 834 831 829 825 821 818 815 812 809 805 802 798 794 790 786 782 777 773 769 766 763 759 753 746 738 731 724 718 711 706 703 699 694 689 684 680 677 676 676 677 678 678 679
863 863 863 863 863 863 863 863 862 862 861 860 860 859 859 858 857 856 856 855 854 852 850 849 847 845 844 842 841 839 837 834 831 828 825 821 817 814 810 807 804 801 797 793 790 786 782 777 773 769 765 763 761 758 752 743 735 729 723 715 708 704 700 696 690 685 681 678 677 677 677 677 678 679
862 862 862 862 862 862 862 862 861 861 860 859 858 858 857 856 856 855 855 854 853 851 850 848 847 845 844 842 840 838 836 833 830 828 825 821 817 814 810 806 802 799 796 793 790 786 782 778 773 769 765 761 759 757 753 747 739 732 726 720 713 706 701 697 692 687 683 681 679 678 677 677 678 679
861 861 862 861 861 861 861 860 860 859 858 857 857 856 855 855 854 854 854 853 852 851 849 848 846 845 843 841 839 837 835 832 830 828 824 821 817 814 810 806 802 798 795 792 789 786 782 778 773 768 764 760 758 756 753 749 743 735 728 722 717 711 705 700 695 690 687 685 683 680 678 678 678 678
861 861 861 861 860 860 860 859 858 857 856 855 855 854 853 853 852 852 852 851 850 849 848 847 846 844 843 841 839 836 834 832 830 827 824 821 818 814 811 807 803 798 794 791 788 785 782 778 773 769 764 759 756 755 752 747 744 738 730 724 719 715 710 704 699 695 692 689 686 684 682 681 680 679
860 860 860 859 859 858 858 857 856 854 854 853 852 852 852 851 850 850 850 849 848 848 847 846 845 844 842 840 838 836 834 832 829 826 824 821 818 814 811 807 803 799 795 791 787 784 781 777 773 769 765 759 756 753 750 746 743 738 733 728 722 718 713 709 704 700 696 693 690 689 687 685 684 683
859 858 858 857 857 856 855 854 854 853 852 851 851 850 850 849 849 849 849 848 847 847 846 845 844 843 841 839 837 835 833 831 829 826 823 821 817 814 811 807 804 800 796 792 788 784 780 777 773 769 765 761 756 753 751 748 744 740 736 732 727 722 717 712 708 705 701 698 695 694 692 690 688 687
857 856 856 856 855 854 853 852 852 852 851 850 850 849 848 848 847 847 847 846 846 846 845 844 843 842 840 839 837 835 833 831 828 825 823 820 818 814 811 808 805 801 797 793 789 785 781 778 774 770 765 761 758 754 751 749 746 742 738 734 731 727 721 716 712 709 705 702 699 698 696 694 693 691
855 854 854 854 853 852 851 851 850 850 849 849 848 847 846 846 846 845 845 845 845 844 843 842 842 840 839 838 836 834 832 830 827 825 822 819 817 814 812 809 806 802 798 794 790 787 783 780 776 772 768 763 759 755 752 750 748 745 741 737 734 730 726 721 716 712 709 706 704 702 701 699 698 696
852 852 851 851 850 850 849 849 848 848 847 846 846 845 844 844 843 843 843 843 843 842 841 841 840 839 837 836 834 832 830 828 826 824 821 818 816 814 812 809 806 803 799 795 792 788 785 782 779 775 771 767 763 758 755 752 749 747 745 741 737 733 730 725 720 716 713 711 709 707 706 704 702 699
849 849 848 848 847 847 847 846 846 845 845 844 843 843 842 842 841 841 841 841 840 840 839 838 837 837 836 834 833 831 829 827 825 823 820 818 816 814 812 809 807 803 800 796 793 789 786 783 781 778 775 772 768 763 758 755 751 749 747 745 742 737 733 729 725 722 719 716 713 711 710 708 705 703
846 846 845 845 845 844 844 844 844 843 842 842 841 841 840 840 839 839 839 838 838 837 837 836 835 835 834 833 831 829 827 825 824 821 819 817 815 813 811 809 807 804 801 797 794 791 787 785 782 780 778 775 772 768 763 759 756 753 749 747 745 742 738 734 730 727 724 720 717 715 712 710 708 705
843 843 842 842 842 842 842 841 841 840 840 839 839 838 838 837 837 837 837 836 836 836 835 834 834 833 832 831 829 828 826 824 822 820 818 816 815 813 811 809 807 804 801 798 795 792 788 786 784 781 779 776 773 770 766 763 759 756 752 749 746 744 743 739 736 732 729 725 722 718 715 712 710 707
838 839 839 839 839 839 839 838 838 838 837 837 836 836 836 835 835 835 835 835 834 834 833 833 832 831 830 829 827 826 824 822 820 819 817 815 814 812 810 808 806 803 801 799 796 793 790 787 785 782 779 777 773 770 766 763 759 757 754 752 748 745 744 742 740 738 735 732 728 724 720 718 716 713
834 835 835 835 835 836 836 835 835 835 834 834 834 833 833 833 833 833 833 832 832 831 831 830 829 828 827 826 824 823 822 820 819 817 816 814 812 810 809 807 805 803 801 799 796 793 791 788 785 782 779 777 773 769 766 764 761 758 756 755 751 748 745 743 741 740 738 736 733 730 727 724 722 719
830 831 831 831 832 832 832 832 832 832 831 831 831 831 831 830 830 830 830 829 829 828 828 827 826 825 824 823 822 821 820 819 817 816 814 813 811 809 807 806 804 802 800 798 796 793 791 788 786 783 780 777 774 771 769 766 763 760 758 756 754 751 748 745 742 740 738 737 735 734 732 729 726 725
827 827 827 828 828 829 829 829 829 829 829 828 828 828 828 828 828 827 827 827 826 826 825 824 824 823 822 821 820 819 818 817 815 814 812 811 809 807 806 804 803 801 799 797 795 792 790 788 786 783 780 777 775 773 770 767 764 761 759 758 755 753 750 748 745 742 739 737 736 735 733 732 730 729
823 824 824 824 824 825 825 826 826 826 826 826 825 825 825 825 825 825 824 824 823 823 823 822 822 821 820 819 818 817 816 814 813 812 810 809 807 806 804 803 801 799 798 796 794 792 790 788 786 783 781 779 776 773 771 769 766 762 760 758 756 754 751 749 747 744 741 739 738 736 734 733 731 730